sat.trackr.live / text

‹ back to catalog

TIANLIAN 2-02

NORAD 50005 · 2021-124A

PAYLOAD ACTIVE UNKNOWN

§ Identity

Operator
Country
PRC
Launch date
2021-12-13
Launch site
XICLF
Launch vehicle
Mass (kg)
RCS (m²)

Purposes: comms

External: N2YO · Heavens-Above · Gunter

§ Orbital elements

Epoch: 2026-05-25T02:50:28.006944Z

Period
1,436.11 min
Inclination
0.7441°
Eccentricity
0.0001968
Mean motion
1.00271113 rev/d
Perigee alt
35,778.5 km
Apogee alt
35,795.1 km
Semi-major
42,164.9 km
B*
0.0000e+0
RAAN
86.4490°
Arg perigee
221.1396°
Mean anomaly
148.6966°
Rev number
1,639

§ Raw data

TIANLIAN 2-021 50005U 21124A   26145.11837971 -.00000016  00000+0  00000+0 0  99912 50005   0.7441  86.4490 0001968 221.1396 148.6966  1.00271113 16392

JSON: /api/v1/satellites/50005 · /tle

For live sub-satellite position, see the globe view (requires WebGL).

§ Visibility from observer

Set your observer location to see the next 7 days of passes ≥ 10°. The values pass through the URL so the page stays shareable.

No JS? Fill the form by hand. The geolocation button needs JavaScript.